QPF
0.00 0.00 0.00 0.00 0.00 0.00 0.00 0.00 0.00 0.00 0.00 0.00 0.00 0.00 0.00 0.00 0.00 0.00 0.00 0.00 0.00 0.00
0.00 0.00 0.00 0.00 0.00 0.00 0.00 0.00 0.00 0.00 0.00 0.00 0.00 0.00 0.00 0.00 0.00 0.00 0.00 0.00 0.00 0.00
0.00 0.00 0.00 0.00 0.00 0.00 0.00 0.00 0.00 0.00 0.00 0.00 0.00 0.00 0.00 0.00 0.00 0.00 0.00 0.00 0.00 0.00
0.00 0.00 0.00 0.00 0.00 0.00 0.00 0.00 0.00 0.00 0.00 0.00 0.00 0.00 0.00 0.00 0.00 0.00 0.00 0.00 0.00 0.00
0.00 0.00 0.00 0.00 0.00 0.00 0.00 0.00 0.00 0.00 0.00 0.00 0.00 0.00 0.00 0.00 0.00 0.00 0.00 0.00 0.00 0.00
0.00 0.00 0.00 0.00 0.00 0.00 0.00 0.00 0.00 0.00 0.00 0.00 0.00 0.00 0.00 0.00 0.00 0.00 0.00 0.01 0.00 0.00
0.00 0.00 0.00 0.00 0.00 0.00 0.00 0.00 0.00 0.00 0.00 0.00 0.00 0.00 0.00 0.00 0.00 0.00 0.00 0.01 0.01 0.00
0.00 0.00 0.00 0.00 0.00 0.00 0.00 0.00 0.00 0.00 0.00 0.00 0.00 0.00 0.00 0.00 0.00 0.00 0.00 0.00 0.00 0.00
0.00 0.00 0.00 0.00 0.00 0.00 0.00 0.00 0.00 0.00 0.00 0.00 0.00 0.00 0.00 0.00 0.00 0.00 0.00 0.00 0.00 0.00
0.00 0.00 0.00 0.00 0.00 0.00 0.00 0.00 0.00 0.00 0.00 0.00 0.00 0.00 0.00 0.00 0.00 0.00 0.00 0.00 0.00 0.00
0.00 0.00 0.00 0.00 0.00 0.00 0.00 0.00 0.00 0.00 0.00 0.00 0.00 0.00 0.00 0.00 0.00 0.00 0.00 0.00 0.00 0.00
0.00 0.00 0.00 0.00 0.00 0.00 0.00 0.00 0.00 0.00 0.00 0.00 0.00 0.00 0.00 0.00 0.00 0.00 0.00 0.00 0.00 0.00
0.00 0.00 0.00 0.00 0.00 0.00 0.00 0.00 0.00 0.00 0.00 0.00 0.00 0.00 0.00 0.00 0.00 0.00 0.00 0.00 0.00 0.00
0.00 0.00 0.00 0.00 0.00 0.00 0.00 0.00 0.00 0.00 0.00 0.00 0.00 0.00 0.00 0.00 0.00 0.00 0.00 0.00 0.00 0.00
MSLP
1020.63 1020.69 1020.88 1021.02 1020.98 1021.09 1020.95 1020.81 1020.55 1020.23 1019.73 1019.20 1018.76 1018.14 1017.68 1017.27 1016.94 1016.44 1016.12 1015.52 1015.22 1014.78
1021.10 1021.28 1021.49 1021.62 1021.64 1021.64 1021.46 1021.17 1020.92 1020.54 1020.06 1019.47 1019.07 1018.47 1017.94 1017.49 1017.04 1016.60 1016.09 1015.67 1015.18 1014.70
1021.64 1021.87 1022.05 1022.01 1022.09 1021.99 1021.90 1021.77 1021.31 1020.97 1020.39 1020.02 1019.49 1018.91 1018.43 1017.90 1017.31 1016.80 1016.40 1015.89 1015.53 1014.94
1022.12 1022.27 1022.43 1022.42 1022.43 1022.34 1022.26 1022.03 1021.60 1021.34 1020.95 1020.49 1020.10 1019.67 1019.16 1018.55 1017.85 1017.36 1016.79 1016.31 1015.79 1015.18
1022.40 1022.60 1022.65 1022.69 1022.60 1022.52 1022.51 1022.39 1022.09 1021.78 1021.47 1021.09 1020.73 1020.46 1019.85 1019.10 1018.55 1018.02 1017.47 1016.88 1016.24 1015.55
1022.85 1022.90 1022.82 1022.81 1022.70 1022.61 1022.74 1022.71 1022.43 1022.06 1021.92 1021.71 1021.53 1021.06 1020.41 1019.65 1019.28 1018.99 1018.53 1017.74 1016.89 1016.20
1023.55 1023.56 1023.41 1023.25 1023.21 1023.25 1023.14 1023.31 1023.07 1022.71 1022.58 1022.31 1022.00 1021.62 1020.89 1020.26 1020.03 1019.96 1019.24 1018.49 1017.63 1016.77
1024.27 1024.21 1024.11 1023.92 1023.86 1023.91 1023.72 1023.93 1023.86 1023.53 1023.29 1023.04 1022.51 1022.12 1021.54 1021.32 1020.86 1020.45 1020.13 1019.40 1018.52 1017.46
1024.89 1024.82 1024.72 1024.65 1024.51 1024.44 1024.46 1024.45 1024.50 1024.22 1023.83 1023.74 1023.49 1023.20 1022.46 1021.89 1021.72 1021.63 1021.07 1020.14 1019.21 1018.18
1025.25 1025.21 1025.16 1025.11 1025.12 1025.09 1025.11 1025.01 1024.95 1024.83 1024.67 1024.64 1024.51 1023.88 1023.04 1022.74 1022.58 1022.17 1021.83 1021.06 1020.03 1018.88
1025.53 1025.54 1025.50 1025.46 1025.43 1025.49 1025.39 1025.38 1025.42 1025.51 1025.53 1025.46 1025.14 1024.36 1023.79 1023.30 1022.96 1022.73 1022.28 1021.66 1020.82 1019.79
1025.85 1025.93 1025.86 1025.90 1025.83 1025.77 1025.63 1025.68 1025.73 1025.94 1026.06 1026.13 1025.68 1024.80 1024.28 1024.05 1023.47 1023.13 1022.71 1022.24 1021.40 1020.41
1026.08 1026.14 1026.14 1026.10 1026.07 1025.92 1025.77 1025.85 1025.94 1026.22 1026.47 1026.47 1026.29 1025.36 1024.69 1024.48 1023.99 1023.55 1023.10 1022.67 1022.07 1021.20
1026.27 1026.28 1026.31 1026.33 1026.18 1026.06 1025.95 1026.05 1026.18 1026.37 1026.70 1026.85 1026.55 1026.22 1025.31 1024.81 1024.60 1024.13 1023.64 1023.23 1022.70 1022.05
Thickness
5471 5467 5461 5457 5454 5450 5449 5448 5448 5450 5453 5456 5459 5464 5466 5471 5473 5475 5475 5480 5481 5484
5456 5451 5445 5440 5436 5433 5433 5433 5433 5435 5439 5442 5444 5447 5451 5457 5459 5461 5464 5466 5468 5471
5441 5434 5429 5426 5422 5420 5418 5417 5419 5421 5425 5427 5431 5434 5437 5441 5445 5448 5449 5452 5455 5459
5425 5420 5415 5412 5409 5407 5405 5404 5406 5407 5411 5414 5415 5418 5420 5425 5429 5431 5435 5438 5442 5446
5412 5406 5403 5401 5399 5397 5394 5392 5392 5394 5396 5398 5400 5401 5405 5409 5412 5415 5419 5423 5427 5431
5398 5394 5393 5392 5390 5388 5385 5383 5382 5384 5383 5384 5384 5386 5390 5395 5396 5397 5399 5404 5409 5413
5383 5381 5380 5379 5377 5374 5374 5371 5371 5373 5372 5372 5373 5374 5378 5381 5379 5376 5380 5384 5388 5393
5369 5367 5365 5364 5363 5361 5361 5359 5359 5360 5361 5362 5364 5365 5366 5363 5364 5363 5361 5363 5366 5370
5355 5353 5352 5350 5350 5349 5348 5347 5347 5349 5352 5352 5352 5350 5351 5354 5352 5347 5346 5347 5348 5350
5344 5342 5340 5339 5338 5337 5335 5337 5337 5339 5340 5339 5337 5339 5343 5340 5338 5339 5337 5337 5337 5338
5333 5330 5329 5327 5326 5324 5326 5327 5327 5327 5326 5326 5326 5329 5331 5332 5331 5330 5332 5332 5332 5333
5322 5319 5316 5312 5312 5313 5317 5317 5318 5317 5316 5315 5317 5320 5322 5322 5322 5323 5324 5324 5326 5328
5313 5310 5307 5305 5304 5306 5309 5310 5311 5310 5308 5308 5307 5312 5315 5315 5314 5316 5318 5318 5319 5322
5305 5303 5300 5298 5299 5301 5304 5303 5304 5305 5302 5300 5301 5303 5307 5307 5306 5308 5310 5311 5312 5314